OpenBCM V1.07b12 (Linux)

Packet Radio Mailbox

DB0FHN

[JN59NK Nuernberg]

 Login: GUEST





  
I6KZR  > KEPLER   06.02.03 22:53l 1460 Lines 39192 Bytes #999 (0) @ WW
BID : 22462_IK6WID
Read: DB0FHN GUEST
Subj: Old Istantrak Keplerians #037
Path: DB0FHN<DB0RGB<OK0PPL<RZ6HXA<SP7MGD<IK6PYS<I6ZLO<IK6WID
Sent: 030206/2140Z @:IK6WID.#AP.IMAR.ITA.EU #:22462 [MONTE URANO]  FBB7.00i
From: I6KZR@IK6WID.#AP.IMAR.ITA.EU
To  : KEPLER@WW


Satellite: OSCAR 7
Catalog number: 07530
Epoch time:      103036.20437182
Element set:     147 
Inclination:      101.7637 deg
RA of node:        84.1153 deg
Eccentricity:    0.0012233
Arg of perigee:   103.3442 deg
Mean anomaly:     256.8994 deg
Mean motion:   12.53564198 rev/day
Decay rate:   -2.9000E-007 rev/day^2
Epoch rev:           29151
Checksum:              280

Satellite: GOES 2
Catalog number: 10061
Epoch time:      103028.56527598
Element set:     70 
Inclination:       14.1264 deg
RA of node:        13.5931 deg
Eccentricity:    0.0013180
Arg of perigee:   196.1337 deg
Mean anomaly:     163.8523 deg
Mean motion:    0.99391768 rev/day
Decay rate:    9.9999E-009 rev/day^2
Epoch rev:            3862
Checksum:              321

Satellite: GOES 3
Catalog number: 10953
Epoch time:      103035.97309085
Element set:     914 
Inclination:       13.4035 deg
RA of node:        17.3349 deg
Eccentricity:    0.0005282
Arg of perigee:   341.2512 deg
Mean anomaly:      18.7684 deg
Mean motion:    1.00278805 rev/day
Decay rate:   -9.8999E-007 rev/day^2
Epoch rev:            4336
Checksum:              309

Satellite: GOES 6
Catalog number: 14050
Epoch time:      103035.09071563
Element set:     417 
Inclination:       10.3815 deg
RA of node:        35.5807 deg
Eccentricity:    0.0003190
Arg of perigee:   349.1855 deg
Mean anomaly:      10.8902 deg
Mean motion:    1.00298332 rev/day
Decay rate:    4.1000E-007 rev/day^2
Epoch rev:           13049
Checksum:              366

Satellite: OSCAR 10
Catalog number: 14129
Epoch time:      103036.77933919
Element set:     915 
Inclination:       25.9013 deg
RA of node:       166.4253 deg
Eccentricity:    0.6030072
Arg of perigee:   325.3874 deg
Mean anomaly:       7.1450 deg
Mean motion:    2.05865592 rev/day
Decay rate:    9.5000E-007 rev/day^2
Epoch rev:           11980
Checksum:              373

Satellite: OSCAR 11 (UoSA
Catalog number: 14781
Epoch time:      103037.42510968
Element set:     63 
Inclination:       98.1150 deg
RA of node:        11.2568 deg
Eccentricity:    0.0008143
Arg of perigee:   249.8701 deg
Mean anomaly:     110.1635 deg
Mean motion:   14.77955538 rev/day
Decay rate:    1.4309E-005 rev/day^2
Epoch rev:            1444
Checksum:              398

Satellite: NOAA 10
Catalog number: 16969
Epoch time:      103037.13821964
Element set:     652 
Inclination:       98.7278 deg
RA of node:        31.2745 deg
Eccentricity:    0.0013252
Arg of perigee:   121.2475 deg
Mean anomaly:     239.0005 deg
Mean motion:   14.27058709 rev/day
Decay rate:    1.6100E-006 rev/day^2
Epoch rev:           85213
Checksum:              293

Satellite: GOES 7
Catalog number: 17561
Epoch time:      103036.46637943
Element set:     838 
Inclination:        7.6003 deg
RA of node:        55.5789 deg
Eccentricity:    0.0005551
Arg of perigee:   250.6920 deg
Mean anomaly:     179.0453 deg
Mean motion:    1.00256895 rev/day
Decay rate:    5.2000E-007 rev/day^2
Epoch rev:            4161
Checksum:              295

Satellite: COSMOS 1861
Catalog number: 18129
Epoch time:      103035.88026773
Element set:     202 
Inclination:       82.9252 deg
RA of node:       156.6789 deg
Eccentricity:    0.0010268
Arg of perigee:   268.2163 deg
Mean anomaly:      91.7811 deg
Mean motion:   13.72698997 rev/day
Decay rate:    2.9000E-007 rev/day^2
Epoch rev:           78263
Checksum:              348

Satellite: EUTELSAT 1-F4 
Catalog number: 18351
Epoch time:      103035.77125847
Element set:     36 
Inclination:        7.1798 deg
RA of node:        58.8746 deg
Eccentricity:    0.0008277
Arg of perigee:   217.9976 deg
Mean anomaly:     141.8978 deg
Mean motion:    0.98689717 rev/day
Decay rate:   -1.6599E-006 rev/day^2
Epoch rev:            4254
Checksum:              379

Satellite: NOAA 11
Catalog number: 19531
Epoch time:      103037.13326785
Element set:     490 
Inclination:       98.9027 deg
RA of node:       118.5565 deg
Eccentricity:    0.0011016
Arg of perigee:   236.2325 deg
Mean anomaly:     123.7800 deg
Mean motion:   14.14531205 rev/day
Decay rate:    1.8099E-006 rev/day^2
Epoch rev:           74104
Checksum:              284

Satellite: ASTRA 1A
Catalog number: 19688
Epoch time:      103036.14901043
Element set:     568 
Inclination:        1.3501 deg
RA of node:        95.0505 deg
Eccentricity:    0.0004165
Arg of perigee:   217.0854 deg
Mean anomaly:     241.5432 deg
Mean motion:    1.00271926 rev/day
Decay rate:    3.1999E-007 rev/day^2
Epoch rev:            3206
Checksum:              270

Satellite: OSCAR 14 (UOSA
Catalog number: 20437
Epoch time:      103036.70519131
Element set:     158 
Inclination:       98.2743 deg
RA of node:        80.9319 deg
Eccentricity:    0.0009819
Arg of perigee:   240.1182 deg
Mean anomaly:     119.9027 deg
Mean motion:   14.31233227 rev/day
Decay rate:    1.3400E-006 rev/day^2
Epoch rev:           68065
Checksum:              395

Satellite: OSCAR 15 (UOSA
Catalog number: 20438
Epoch time:      103036.64547335
Element set:     773 
Inclination:       98.2487 deg
RA of node:        70.0532 deg
Eccentricity:    0.0009034
Arg of perigee:   252.7999 deg
Mean anomaly:     107.2200 deg
Mean motion:   14.30194335 rev/day
Decay rate:    1.0899E-006 rev/day^2
Epoch rev:           68031
Checksum:              313

Satellite: OSCAR 16 (PACS
Catalog number: 20439
Epoch time:      103035.74362252
Element set:     847 
Inclination:       98.3200 deg
RA of node:        91.6198 deg
Eccentricity:    0.0010146
Arg of perigee:   248.9900 deg
Mean anomaly:     111.0192 deg
Mean motion:   14.31465874 rev/day
Decay rate:    1.6300E-006 rev/day^2
Epoch rev:           68055
Checksum:              292

Satellite: OSCAR 17 (DOVE
Catalog number: 20440
Epoch time:      103035.73522377
Element set:     744 
Inclination:       98.3387 deg
RA of node:        95.4722 deg
Eccentricity:    0.0010219
Arg of perigee:   248.6008 deg
Mean anomaly:     111.4076 deg
Mean motion:   14.31743071 rev/day
Decay rate:    1.5299E-006 rev/day^2
Epoch rev:           68062
Checksum:              301

Satellite: OSCAR 18 (WEBE
Catalog number: 20441
Epoch time:      103037.19300052
Element set:     5 
Inclination:       98.3379 deg
RA of node:        96.0928 deg
Eccentricity:    0.0010801
Arg of perigee:   244.5468 deg
Mean anomaly:     115.4598 deg
Mean motion:   14.31548322 rev/day
Decay rate:    1.6599E-006 rev/day^2
Epoch rev:           68081
Checksum:              307

Satellite: OSCAR 19 (LUSA
Catalog number: 20442
Epoch time:      103036.68362606
Element set:     956 
Inclination:       98.3481 deg
RA of node:        98.6020 deg
Eccentricity:    0.0011059
Arg of perigee:   246.5974 deg
Mean anomaly:     113.4045 deg
Mean motion:   14.31711022 rev/day
Decay rate:    1.6899E-006 rev/day^2
Epoch rev:           68079
Checksum:              319

Satellite: JAS 1B (FUJI 2
Catalog number: 20480
Epoch time:      103035.90334722
Element set:     460 
Inclination:       99.0443 deg
RA of node:         1.2180 deg
Eccentricity:    0.0540880
Arg of perigee:    34.8034 deg
Mean anomaly:     328.7225 deg
Mean motion:   12.83329030 rev/day
Decay rate:   -2.9000E-007 rev/day^2
Epoch rev:           60876
Checksum:              269

Satellite: HST
Catalog number: 20580
Epoch time:      103036.64085252
Element set:     318 
Inclination:       28.4666 deg
RA of node:       122.0570 deg
Eccentricity:    0.0004394
Arg of perigee:   133.2864 deg
Mean anomaly:      15.3708 deg
Mean motion:   14.97759329 rev/day
Decay rate:    2.3619E-005 rev/day^2
Epoch rev:           50069
Checksum:              303

Satellite: EUTELSAT 2-F1
Catalog number: 20777
Epoch time:      103036.63498247
Element set:     26 
Inclination:        3.4701 deg
RA of node:        84.6848 deg
Eccentricity:    0.0000596
Arg of perigee:   280.4619 deg
Mean anomaly:      74.8048 deg
Mean motion:    1.00270894 rev/day
Decay rate:   -9.8999E-007 rev/day^2
Epoch rev:            2596
Checksum:              339

Satellite: FENGYUN 1B
Catalog number: 20788
Epoch time:      103037.40270574
Element set:     875 
Inclination:       99.0259 deg
RA of node:        19.7038 deg
Eccentricity:    0.0014986
Arg of perigee:   264.8266 deg
Mean anomaly:      95.1190 deg
Mean motion:   14.02135243 rev/day
Decay rate:   -1.7800E-006 rev/day^2
Epoch rev:           63583
Checksum:              318

Satellite: EUTELSAT 2-F2
Catalog number: 21056
Epoch time:      103036.82285302
Element set:     615 
Inclination:        2.6997 deg
RA of node:        88.0504 deg
Eccentricity:    0.0003060
Arg of perigee:   261.2571 deg
Mean anomaly:     130.8404 deg
Mean motion:    1.00273511 rev/day
Decay rate:    1.2100E-006 rev/day^2
Epoch rev:            3175
Checksum:              239

Satellite: INFORMATOR 1
Catalog number: 21087
Epoch time:      103035.87743491
Element set:     596 
Inclination:       82.9439 deg
RA of node:       327.5445 deg
Eccentricity:    0.0034028
Arg of perigee:   290.7216 deg
Mean anomaly:      69.0291 deg
Mean motion:   13.74924789 rev/day
Decay rate:    6.0999E-007 rev/day^2
Epoch rev:           60300
Checksum:              340

Satellite: COSMOS 2123
Catalog number: 21089
Epoch time:      103036.87352593
Element set:     488 
Inclination:       82.9217 deg
RA of node:       190.7918 deg
Eccentricity:    0.0028735
Arg of perigee:   324.6877 deg
Mean anomaly:      35.2379 deg
Mean motion:   13.74402697 rev/day
Decay rate:    5.4999E-007 rev/day^2
Epoch rev:           60204
Checksum:              363

